This is the latest recevied weather packets stored in our database for station/object K9YK-13. If no packets are shown the sender has not sent any weather packets the latest 10 day(s).
| Time | Temp. | Humidity | Pressure | Rain* | Wind** | Luminosity | Snow |
|---|---|---|---|---|---|---|---|
| 1777825871 | 15.56° C | 59% | 0 hPa | 0 mm | - | - | - |
| 1777825571 | 15° C | 59% | 0 hPa | 0 mm | - | - | - |
| 1777825271 | 15° C | 61% | 0 hPa | 0 mm | - | - | - |
| 1777824971 | 15° C | 61% | 0 hPa | 0 mm | - | - | - |
| 1777824671 | 15.56° C | 60% | 0 hPa | 0 mm | - | - | - |
| 1777824371 | 15.56° C | 57% | 0 hPa | 0 mm | - | - | - |
| 1777824071 | 15° C | 60% | 0 hPa | 0 mm | - | - | - |
| 1777823771 | 16.67° C | 60% | 0 hPa | 0 mm | - | - | - |
| 1777823471 | 16.67° C | 59% | 0 hPa | 0 mm | - | - | - |
| 1777823171 | 16.67° C | 58% | 0 hPa | 0 mm | - | - | - |
| 1777822881 | 16.11° C | 58% | 0 hPa | 0 mm | - | - | - |
| 1777822271 | 15.56° C | 58% | 0 hPa | 0 mm | - | - | - |
| 1777821971 | 15.56° C | 58% | 0 hPa | 0 mm | - | - | - |
| 1777821671 | 15° C | 59% | 0 hPa | 0 mm | - | - | - |
| 1777821371 | 15° C | 59% | 0 hPa | 0 mm | - | - | - |
| 1777821071 | 15° C | 59% | 0 hPa | 0 mm | - | - | - |
| 1777820771 | 15.56° C | 60% | 0 hPa | 0 mm | - | - | - |
| 1777820471 | 15.56° C | 61% | 0 hPa | 0 mm | - | - | - |
| 1777820171 | 15° C | 61% | 0 hPa | 0 mm | - | - | - |
| 1777819871 | 15.56° C | 61% | 0 hPa | 0 mm | - | - | - |
| 1777819571 | 15° C | 61% | 0 hPa | 0 mm | - | - | - |
| 1777819271 | 15° C | 61% | 0 hPa | 0 mm | - | - | - |
| 1777818971 | 15° C | 61% | 0 hPa | 0 mm | - | - | - |
| 1777818671 | 15° C | 61% | 0 hPa | 0 mm | - | - | - |
| 1777818371 | 15.56° C | 59% | 0 hPa | 0 mm | - | - | - |
* Rain latest hour (hover to see other rain measurements)
** Current wind speed in m/s (hover to see current wind gust speed)